Regional Weather Roundup
Issued by NWS

Home | Current Version | Previous Version | Graphics & Text | Print | Product List | Glossary On
Versions: 1 2 3 4 5 6 7 8 9 10 11 12 13 14 15 16 17 18 19 20 21 22 23 24 25 26 27 28 29 30 31 32 33 34 35 36 37 38 39 40 41 42 43 44 45 46 47 48 49 50
000
ASUS43 KMPX 181810
RWRMN
WEATHER ROUNDUP FOR MINNESOTA
NATIONAL WEATHER SERVICE TWIN CITIES/CHANHASSEN MN
100 PM CDT MON SEP 18 2017


NOTE: "FAIR" INDICATES FEW OR NO CLOUDS BELOW 12,000 FEET WITH NO
SIGNIFICANT WEATHER AND/OR OBSTRUCTIONS TO VISIBILITY. N/A MEANS
CURRENT SKY AND/OR WEATHER CONDITIONS ARE NOT AVAILABLE.

MNZ060>063-068>070-181900-
   Twin Cities Metro

CITY           SKY/WX    TMP DP  RH WIND       PRES   REMARKS
TWIN CITIES    LGT RAIN  57  54  89 SE12      30.06S
6HR MIN TEMP:  55; 6HR MAX TEMP:  58; 6HR PCP:  0.17;

ST PAUL        LGT RAIN  56  54  93 SE10      30.07S FOG
CRYSTAL        LGT RAIN  56  51  84 SE9       30.04F
BLAINE         LGT RAIN  57  55  94 SE6       30.05F
LAKEVILLE      RAIN      54  54 100 SE5       30.06R
EDEN PRAIRIE   CLOUDY    57  53  86 SE10      30.04F
6HR MIN TEMP:  55; 6HR MAX TEMP:  57; 6HR PCP:  0.25;

SOUTH ST PAUL  LGT RAIN  55  55  99 SE3       30.06R
LAKE ELMO      DRIZZLE   55  54  94 SE7       30.07F
$$
MNZ001>005-007-008-013>017-022>024-027-028-181900-
   Northwest Minnesota

CITY           SKY/WX    TMP DP  RH WIND       PRES   REMARKS
BEMIDJI        CLOUDY    61  50  67 SE12      29.96F
HALLOCK        PTSUNNY   64  50  59 SE8       29.90F
ROSEAU         MOSUNNY   64  52  63 S9        29.94F
WARROAD        SUNNY     63  52  67 SE10      29.96F
THIEF RVR FALL PTSUNNY   66  49  54 E13       29.91F
CROOKSTON      MOSUNNY   68  50  52 S10G17    29.89F
FOSSTON        CLOUDY    61  50  67 SE12G17   29.92F
DETROIT LAKES  MOSUNNY   63  54  72 SE14G22   29.93F
MOORHEAD       SUNNY     70  52  52 S14G22    29.88F
PARK RAPIDS    CLOUDY    63  52  67 SE16      29.96F
MAHNOMEN       MOCLDY    64  52  64 SE15G21   29.90F
$$
MNZ006-009>011-018-025>026-181900-
   North Central Minnesota

CITY           SKY/WX    TMP DP  RH WIND       PRES   REMARKS
BAUDETTE       PTSUNNY   64  48  56 S13       29.97F
FLAG ISLAND    MOSUNNY   59  48  67 SE8       29.96F
INTL FALLS     PTSUNNY   62  46  55 S8        30.00F
6HR MIN TEMP:  38; 6HR MAX TEMP:  62;

WASKISH        CLOUDY    61  50  67 SE8       29.98F
BIG FORK       SUNNY     64  50  59 SE9       30.01F
LONGVILLE      CLOUDY    64  50  59 S13G20    29.99F
GRAND RAPIDS   CLOUDY    62  47  57 SE12G21   30.04F
CRANE LAKE     MOSUNNY   57  46  67 S7        30.06F
ORR            PTSUNNY   61  46  59 S8        30.01F
COOK           PTSUNNY   61  48  63 SE8       30.05F
WALKER         MOCLDY    61  49  64 S10       29.98F
$$
MNZ012-019>021-037-181900-
   Northeast Minnesota

CITY           SKY/WX    TMP DP  RH WIND       PRES   REMARKS
DULUTH         CLOUDY    58  48  69 S10       30.07F
6HR MIN TEMP:  48; 6HR MAX TEMP:  58;

ELY            CLOUDY    59  45  58 SE9       30.06F
HIBBING        PTSUNNY   61  47  59 SE8       30.04F
EVELETH        SUNNY     61  46  58 S9        30.06F
DULUTH HARBOR  CLOUDY    63  52  67 E3        30.08F
TWO HARBORS    PTSUNNY   61  54  77 S5        30.07F
SILVER BAY     CLOUDY    59  50  72 SE5       30.08
GRAND MARAIS     N/A     57  52  83 S6        30.11F
G MARAIS ARPRT   N/A     52  43  71 S7        30.12F
$$
MNZ029>031-032-039>041-046>048-054>057-064-181900-
   West Central Minnesota

CITY           SKY/WX    TMP DP  RH WIND       PRES   REMARKS
FERGUS FALLS   CLOUDY    61  54  77 SE17      29.91F
WHEATON        CLOUDY    64  55  72 SE13      29.91F
MORRIS         CLOUDY    59  55  88 SE16      29.93S
ALEXANDRIA     CLOUDY    56  53  90 SE17      29.97F
ELBOW LAKE     CLOUDY    58  55  88 SE17G24   29.93F
WADENA         CLOUDY    61  52  72 S14G24    29.95F
GLENWOOD       CLOUDY    55  54  94 SE16      29.97F FOG
APPLETON       CLOUDY    63  55  77 SE14      29.92F
BENSON         CLOUDY    61  55  82 S13G21    29.95F
ORTONVILLE     CLOUDY    63  55  77 NE12      29.91S
MADISON        CLOUDY    64  61  88 SE16      29.91F
WILLMAR        CLOUDY    59  55  88 SE13G21   29.99F
$$
MNZ033>034-036-042>043-049>051-058-059-181900-
   Central Minnesota

CITY           SKY/WX    TMP DP  RH WIND       PRES   REMARKS
ST CLOUD       CLOUDY    56  54  93 SE9       30.02F
6HR MIN TEMP:  51; 6HR MAX TEMP:  57; 6HR PCP:  0.02;

PAYNESVILLE    CLOUDY    57  54  88 SE13      30.00F
AITKIN         CLOUDY    61  50  67 S9G20     30.02S
PINE RIVER     CLOUDY    61  50  67 S10       30.01F
BRAINERD       CLOUDY    61  50  67 SE12G20   30.01F
STAPLES        CLOUDY    59  48  67 S10G17    29.97F
LONG PRAIRIE   CLOUDY    55  50  82 E12G20    29.99F
LITTLE FALLS   CLOUDY    54  48  82 SE8       30.02F HAZE
LITCHFIELD     CLOUDY    57  55  94 SE13      30.00F
BUFFALO        CLOUDY    56  51  84 SE13G18   30.03F
MAPLE LAKE     CLOUDY    58  55  89 SE9       30.02F
HUTCHINSON     RAIN      56  55  96 SE14G21   30.00F
$$
MNZ037-044-045-052-053-181900-
   East Central Minnesota

CITY           SKY/WX    TMP DP  RH WIND       PRES   REMARKS
PRINCETON      DRIZZLE   59  52  77 SE10      30.03F
MORA           CLOUDY    55  50  82 SE6       30.06F
CAMBRIDGE      LGT RAIN  61  48  63 SE9       30.05F
RUSH CITY      CLOUDY    56  51  81 S7        30.06F
MOOSE LAKE     PTSUNNY   59  46  63 S6        30.05F
HINCKLEY       CLOUDY    57  52  82 SE6       30.07F
CLOQUET        CLOUDY    59  46  63 S9        30.06F
MCGREGOR       CLOUDY    63  50  63 S13       30.04F
$$
MNZ071>073-080-081-089-090-097-098-181900-
   Southwest Minnesota

CITY           SKY/WX    TMP DP  RH WIND       PRES   REMARKS
MONTEVIDEO     CLOUDY    59  57  94 S16       29.94F
GRANITE FALLS  CLOUDY    60  56  86 SE12      29.97F
CANBY          CLOUDY    64  59  83 E10       29.92F
MARSHALL       CLOUDY    64  56  75 S15       29.94F
REDWOOD FALLS  CLOUDY    58  55  90 SE12      29.97F
OLIVIA         CLOUDY    55  54  94 SE14G20   29.97S
PIPESTONE      CLOUDY    61  57  88 SE10      29.94F FOG
WINDOM         RAIN      55  55 100 E6        29.98F
WORTHINGTON    CLOUDY    57  56  96 SE6       29.97F
JACKSON        RAIN      55  55 100 CALM      29.98F
TRACY          CLOUDY    61  57  88 S10G18    29.96F
SLAYTON        CLOUDY    57  55  92 SE10      29.98S FOG
$$
MNZ065>067-074>077-082>085-091>093-181900-
   South Central Minnesota

CITY           SKY/WX    TMP DP  RH WIND       PRES   REMARKS
MANKATO        HVY RAIN  55  54  94 E8        30.02F FOG
NEW ULM        RAIN      55  54  94 SE14      29.99F
ST JAMES       CLOUDY    55  55 100 E7        30.01S
FAIRMONT       CLOUDY    58  56  93 SE13      29.99F
GLENCOE        LGT RAIN  56  56  99 SE9       30.02F
FARIBAULT      HVY RAIN  55  54  94 SE3       30.06R
OWATONNA       RAIN      55  54  94 E10       30.02F
WASECA         HVY RAIN  54  54 100 E5        30.04S
ALBERT LEA     CLOUDY    59  57  94 SE8       30.02F
$$
MNZ078>079-086>088-094>096-181900-
   Southeast Minnesota

CITY           SKY/WX    TMP DP  RH WIND       PRES   REMARKS
ROCHESTER      LGT RAIN  56  54  93 E8        30.06F
6HR MIN TEMP:  52; 6HR MAX TEMP:  57; 6HR PCP:  0.11;

RED WING       LGT RAIN  57  54  88 CALM      30.05F
STANTON        RAIN      56  53  88 CALM      30.06R
DODGE CENTER   DRIZZLE   57  52  82 SE3       30.05S
WINONA         CLOUDY    61  50  67 SE7       30.07F
AUSTIN         HVY RAIN  55  54  94 SE7       30.03F
PRESTON        CLOUDY    61  49  65 SE9       30.05F
$$
ABBREVIATIONS USED IN REMARKS
   TC - TEMPERATURES IN CELSIUS
  WCI - WIND CHILL INDEX
   HX - HEAT INDEX
  VSB - VISIBILITY
$$




USA.gov is the U.S. government's official web portal to all federal, state and local government web resources and services.